{"data":{"norad_id":62931,"epoch":"2026-09-22T21:44:51.880128Z","epoch_age_seconds":107897,"freshness":"FRESH","line1":"1 62931U 25028D   26265.90615602  .00000705  00000+0  10664-3 0  9999","line2":"2 62931  97.8861 315.4244 0001252 119.5312 240.6023 14.77222499 87208","mean_motion":14.77222499,"eccentricity":0.0001252,"inclination_deg":97.8861,"raan_deg":315.4244,"arg_perigee_deg":119.5312,"mean_anomaly_deg":240.6023,"bstar":0.00010664,"rev_number":8720,"period_min":97.480237470984,"perigee_km":637.22665614771,"apogee_km":638.98352316696,"semimajor_km":7016.2420896573,"source":"CELESTRAK","updated_at":"2026-09-23T09:00:21.727135Z"}}